Погода в Решетине

Россия / Пензенская область     53°13′17″N   43°37′20″E
темп.,
°C
ветер,
м/с
пор.,
м/с
влажн.,
%
обл.,
%
осадки,
мм/ч
давл.,
гПа
погр.,
м
6 мая, чт
чт600:00+7юз410845 0.0 1015159
03:00+6юз4108511 0.0 1015171
06:00+7ююз498486 0.0 1015199
09:00+13ююз6964100 0.0 1016621
12:00+16ююз7955100 0.0 10151548
15:00+16ююз7105397 0.0 10141854
18:00+14ююз61064100 0.0 1013546
21:00+11ю41177100 0.0 1014226
7 мая, пт
пт700:00+10ю51373100 0.0 1013289
03:00+10ю51472100 0.0 1013343
06:00+10ю61470100 0.0 1012345
09:00+11ю5972100 0.0 1012442
12:00+10сз6685100 0.3 1014496
15:00+8ссз458897 1.2 1016357
18:00+11ссв35715 0.0 1016853
21:00+6юв22911 0.0 101824
8 мая, сб
сб800:00+5ю12898 0.0 101810
03:00+5вюв228931 0.0 101811
06:00+6вюв2486100 0.0 1017125
09:00+10юв457358 0.0 1015523
12:00+15ю6751100 0.0 10131041
15:00+16ю7952100 0.0 10121211
18:00+15ю71267100 0.0 1010664
21:00+13ю61482100 0.1 1010671
9 мая, вс
вс900:00+13ю71589100 1.4 1008649
03:00+11з5893100 1.8 1010525
06:00+8зсз4792100 0.0 1012453
09:00+7зсз5684100 0.1 1014507
12:00+7ссз5684100 1.1 1015504
15:00+6с3590100 7.8 1018715
18:00+6с3793100 2.3 1019720
21:00+6ссв41093100 2.6 1020556
10 мая, пн
пн1000:00+6ссв51293100 0.1 1021591
03:00+5ссв61495100 0.1 1023527
06:00+6ссв8158910 0.0 1024637
09:00+7св81583100 0.0 1026692
12:00+8св81479100 0.1 1027658
15:00+12св9126690 0.1 1027776
18:00+11св8137688 0.0 1027644
21:00+8св7168192 0.0 1028463